| time (UTC) | temp F | wind direction | speed MPH | gust MPH | rain 1hr in | rain 24hr in | rain mn in | humidity % | barometer mb |
| 20260901072330 | 65 | 82 | 0.0 | 1.0 | 0.00 | 0.00 | 0.00 | 92 | 1012.9 |
| 20260901071841 | 65 | 82 | 0.0 | 1.0 | 0.00 | 0.00 | 0.00 | 92 | 1012.9 |
| 20260901071329 | 65 | 82 | 0.0 | 2.0 | 0.00 | 0.00 | 0.00 | 91 | 1012.7 |
| 20260901070813 | 65 | 48 | 0.0 | 2.0 | 0.00 | 0.00 | 0.00 | 91 | 1012.7 |
| 20260901070346 | 65 | 81 | 0.0 | 1.0 | 0.00 | 0.00 | 0.00 | 92 | 1012.7 |
| 20260901065828 | 65 | 123 | 0.0 | 0.0 | 0.00 | 0.00 | 0.00 | 92 | 1013.1 |
| 20260901065317 | 65 | 123 | 0.0 | 1.0 | 0.00 | 0.00 | 0.00 | 92 | 1013.1 |
| 20260901064819 | 65 | 123 | 0.0 | 1.0 | 0.00 | 0.00 | 0.00 | 92 | 1013.1 |
| 20260901064352 | 65 | 123 | 0.0 | 3.0 | 0.00 | 0.00 | 0.00 | 92 | 1013.5 |
| 20260901063835 | 65 | 123 | 0.0 | 2.0 | 0.00 | 0.00 | 0.00 | 92 | 1013.5 |
| 20260901063317 | 65 | 98 | 0.0 | 1.0 | 0.00 | 0.00 | 0.00 | 92 | 1013.5 |
| 20260901062826 | 65 | 98 | 0.0 | 0.0 | 0.00 | 0.00 | 0.00 | 92 | 1013.8 |
| 20260901062336 | 65 | 98 | 0.0 | 0.0 | 0.00 | 0.00 | 0.00 | 92 | 1013.8 |
| 20260901061848 | 65 | 98 | 0.0 | 1.0 | 0.00 | 0.00 | 0.00 | 92 | 1013.8 |
| 20260901061337 | 65 | 98 | 0.0 | 1.0 | 0.00 | 0.00 | 0.00 | 92 | 1013.9 |
| 20260901060821 | 65 | 98 | 0.0 | 1.0 | 0.00 | 0.00 | 0.00 | 91 | 1013.9 |
| 20260901060352 | 65 | 98 | 0.0 | 0.0 | 0.00 | 0.00 | 0.00 | 91 | 1013.9 |
| 20260901055824 | 65 | 98 | 0.0 | 0.0 | 0.00 | 0.00 | 0.00 | 91 | 1013.9 |
| 20260901055330 | 65 | 98 | 0.0 | 0.0 | 0.00 | 0.00 | 0.00 | 91 | 1013.9 |
| 20260901054831 | 65 | 98 | 0.0 | 0.0 | 0.00 | 0.00 | 0.00 | 91 | 1013.9 |
| 20260901054318 | 65 | 98 | 0.0 | 0.0 | 0.00 | 0.00 | 0.00 | 91 | 1014.0 |
| 20260901053826 | 65 | 98 | 0.0 | 0.0 | 0.00 | 0.00 | 0.00 | 91 | 1014.0 |
| 20260901053340 | 65 | 98 | 0.0 | 1.0 | 0.00 | 0.00 | 0.00 | 91 | 1014.0 |
| 20260901052822 | 65 | 98 | 0.0 | 1.0 | 0.00 | 0.00 | 0.00 | 91 | 1014.2 |
| 20260901052327 | 65 | 98 | 0.0 | 0.0 | 0.00 | 0.00 | 0.00 | 91 | 1014.2 |
| 20260901051825 | 65 | 98 | 0.0 | 0.0 | 0.00 | 0.00 | 0.00 | 91 | 1014.2 |
| 20260901051336 | 65 | 98 | 0.0 | 1.0 | 0.00 | 0.00 | 0.00 | 90 | 1014.3 |
| 20260901050828 | 65 | 98 | 0.0 | 1.0 | 0.00 | 0.00 | 0.00 | 90 | 1014.3 |
| 20260901050342 | 65 | 98 | 0.0 | 0.0 | 0.00 | 0.00 | 0.00 | 90 | 1014.3 |
| 20260901045813 | 65 | 98 | 0.0 | 0.0 | 0.00 | 0.00 | 0.00 | 90 | 1014.3 |
| 20260901045318 | 65 | 98 | 0.0 | 0.0 | 0.00 | 0.00 | 0.00 | 90 | 1014.3 |
| 20260901044817 | 65 | 98 | 0.0 | 0.0 | 0.00 | 0.00 | 0.00 | 90 | 1014.3 |
| 20260901044334 | 66 | 98 | 0.0 | 0.0 | 0.00 | 0.00 | 0.00 | 90 | 1014.3 |
| 20260901043814 | 66 | 98 | 0.0 | 0.0 | 0.00 | 0.00 | 0.00 | 90 | 1014.3 |
| 20260901043326 | 66 | 98 | 0.0 | 0.0 | 0.00 | 0.00 | 0.00 | 89 | 1014.3 |
| 20260901042832 | 66 | 98 | 0.0 | 0.0 | 0.00 | 0.00 | 0.00 | 89 | 1014.2 |
| 20260901042343 | 66 | 98 | 0.0 | 1.0 | 0.00 | 0.00 | 0.00 | 89 | 1014.2 |
| 20260901041836 | 66 | 98 | 0.0 | 1.0 | 0.00 | 0.00 | 0.00 | 88 | 1014.2 |
| 20260901041332 | 66 | 98 | 0.0 | 0.0 | 0.00 | 0.00 | 0.00 | 88 | 1013.8 |
| 20260901040831 | 66 | 123 | 0.0 | 1.0 | 0.00 | 0.00 | 0.00 | 88 | 1013.8 |
| 20260901040335 | 66 | 123 | 0.0 | 1.0 | 0.00 | 0.00 | 0.00 | 88 | 1013.8 |
| 20260901035826 | 66 | 94 | 0.0 | 0.0 | 0.00 | 0.00 | 0.00 | 87 | 1014.1 |
| 20260901035321 | 66 | 94 | 0.0 | 1.0 | 0.00 | 0.00 | 0.00 | 88 | 1014.1 |
| 20260901034821 | 66 | 94 | 0.0 | 0.0 | 0.00 | 0.00 | 0.00 | 87 | 1014.1 |
| 20260901034340 | 66 | 131 | 0.0 | 1.0 | 0.00 | 0.00 | 0.00 | 87 | 1014.0 |
| 20260901033823 | 66 | 131 | 0.0 | 3.0 | 0.00 | 0.00 | 0.00 | 87 | 1014.0 |
| 20260901033337 | 66 | 132 | 1.0 | 3.0 | 0.00 | 0.00 | 0.00 | 87 | 1014.0 |
| 20260901032830 | 66 | 119 | 0.0 | 3.0 | 0.00 | 0.00 | 0.00 | 87 | 1014.3 |
| 20260901032337 | 66 | 153 | 0.0 | 1.0 | 0.00 | 0.00 | 0.00 | 87 | 1014.3 |
| 20260901031816 | 66 | 147 | 0.0 | 2.0 | 0.00 | 0.00 | 0.00 | 87 | 1014.3 |
| 20260901031319 | 66 | 190 | 0.0 | 4.0 | 0.00 | 0.00 | 0.00 | 88 | 1014.2 |
| 20260901030831 | 67 | 159 | 1.0 | 4.0 | 0.00 | 0.00 | 0.00 | 87 | 1014.2 |
| 20260901030338 | 66 | 120 | 1.0 | 3.0 | 0.00 | 0.00 | 0.00 | 87 | 1014.2 |
| 20260901025835 | 66 | 157 | 1.0 | 3.0 | 0.00 | 0.00 | 0.00 | 87 | 1014.3 |
| 20260901025316 | 66 | 169 | 1.0 | 3.0 | 0.00 | 0.00 | 0.00 | 88 | 1014.3 |
| 20260901024824 | 66 | 81 | 1.0 | 2.0 | 0.00 | 0.00 | 0.00 | 89 | 1014.3 |
| 20260901024331 | 66 | 163 | 0.0 | 2.0 | 0.00 | 0.00 | 0.00 | 89 | 1014.4 |
| 20260901023900 | 66 | 131 | 0.0 | 1.0 | 0.00 | 0.00 | 0.00 | 89 | 1014.4 |
| 20260901023321 | 66 | 131 | 0.0 | 1.0 | 0.00 | 0.00 | 0.00 | 89 | 1014.4 |
| 20260901022831 | 66 | 131 | 0.0 | 0.0 | 0.00 | 0.00 | 0.00 | 89 | 1014.6 |
| 20260901022316 | 67 | 131 | 0.0 | 0.0 | 0.00 | 0.00 | 0.00 | 88 | 1014.6 |
| 20260901021820 | 67 | 131 | 0.0 | 1.0 | 0.00 | 0.00 | 0.00 | 88 | 1014.6 |
| 20260901021340 | 67 | 131 | 0.0 | 1.0 | 0.00 | 0.00 | 0.00 | 88 | 1014.6 |
| 20260901020820 | 67 | 131 | 0.0 | 1.0 | 0.00 | 0.00 | 0.00 | 88 | 1014.6 |
| 20260901020340 | 67 | 159 | 0.0 | 0.0 | 0.00 | 0.00 | 0.00 | 88 | 1014.6 |
| 20260901015832 | 67 | 159 | 0.0 | 0.0 | 0.00 | 0.00 | 0.00 | 88 | 1014.5 |
| 20260901015358 | 67 | 159 | 0.0 | 0.0 | 0.00 | 0.00 | 0.00 | 88 | 1014.5 |
| 20260901014832 | 67 | 159 | 0.0 | 0.0 | 0.00 | 0.00 | 0.00 | 87 | 1014.5 |
| 20260901014315 | 67 | 159 | 0.0 | 2.0 | 0.00 | 0.00 | 0.00 | 87 | 1014.3 |
| 20260901013827 | 67 | 159 | 0.0 | 2.0 | 0.00 | 0.00 | 0.00 | 87 | 1014.3 |
| 20260901013336 | 67 | 117 | 0.0 | 2.0 | 0.00 | 0.00 | 0.00 | 87 | 1014.3 |
| 20260901012823 | 67 | 161 | 0.0 | 1.0 | 0.00 | 0.00 | 0.00 | 87 | 1014.3 |
| 20260901012356 | 67 | 132 | 0.0 | 1.0 | 0.00 | 0.00 | 0.00 | 86 | 1014.3 |
| 20260901011815 | 67 | 118 | 0.0 | 0.0 | 0.00 | 0.00 | 0.00 | 86 | 1014.3 |
| 20260901011350 | 67 | 99 | 0.0 | 0.0 | 0.00 | 0.00 | 0.00 | 85 | 1014.3 |
| 20260901010830 | 67 | 99 | 0.0 | 1.0 | 0.00 | 0.00 | 0.00 | 85 | 1014.3 |
| 20260901010322 | 67 | 99 | 0.0 | 1.0 | 0.00 | 0.00 | 0.00 | 85 | 1014.3 |
| 20260901005835 | 67 | 99 | 0.0 | 2.0 | 0.00 | 0.00 | 0.00 | 85 | 1014.4 |
| 20260901005322 | 68 | 99 | 0.0 | 2.0 | 0.00 | 0.00 | 0.00 | 85 | 1014.4 |
| 20260901004823 | 68 | 99 | 0.0 | 2.0 | 0.00 | 0.00 | 0.00 | 84 | 1014.4 |
| 20260901004318 | 68 | 99 | 0.0 | 2.0 | 0.00 | 0.00 | 0.00 | 84 | 1014.3 |
| 20260901003851 | 68 | 99 | 0.0 | 2.0 | 0.00 | 0.00 | 0.00 | 84 | 1014.3 |
| 20260901003316 | 68 | 99 | 1.0 | 2.0 | 0.00 | 0.00 | 0.00 | 83 | 1014.3 |
| 20260901002826 | 68 | 108 | 0.0 | 2.0 | 0.00 | 0.00 | 0.00 | 83 | 1014.3 |
| 20260901002319 | 68 | 108 | 0.0 | 2.0 | 0.00 | 0.00 | 0.00 | 83 | 1014.3 |
| 20260901001829 | 68 | 108 | 0.0 | 3.0 | 0.00 | 0.00 | 0.00 | 82 | 1014.3 |
| 20260901001319 | 68 | 108 | 1.0 | 3.0 | 0.00 | 0.00 | 0.00 | 82 | 1014.3 |
| 20260901000844 | 69 | 133 | 0.0 | 5.0 | 0.00 | 0.00 | 0.00 | 82 | 1014.3 |
| 20260901000328 | 69 | 76 | 1.0 | 4.0 | 0.00 | 0.00 | 0.00 | 81 | 1014.3 |
| 20260831235833 | 69 | 132 | 1.0 | 5.0 | 0.00 | 0.00 | 0.00 | 81 | 1014.3 |
| 20260831235330 | 69 | 163 | 1.0 | 5.0 | 0.00 | 0.00 | 0.00 | 81 | 1014.3 |
| 20260831234822 | 69 | 128 | 2.0 | 5.0 | 0.00 | 0.00 | 0.00 | 81 | 1014.3 |
| 20260831234318 | 69 | 134 | 2.0 | 3.0 | 0.00 | 0.00 | 0.00 | 81 | 1014.2 |
| 20260831233848 | 69 | 144 | 1.0 | 3.0 | 0.00 | 0.00 | 0.00 | 80 | 1014.2 |
| 20260831233359 | 69 | 141 | 0.0 | 4.0 | 0.00 | 0.00 | 0.00 | 80 | 1014.2 |
| 20260831232827 | 69 | 128 | 1.0 | 4.0 | 0.00 | 0.00 | 0.00 | 80 | 1014.3 |
| 20260831232357 | 69 | 161 | 1.0 | 4.0 | 0.00 | 0.00 | 0.00 | 80 | 1014.3 |
| 20260831231847 | 69 | 123 | 1.0 | 2.0 | 0.00 | 0.00 | 0.00 | 81 | 1014.3 |
| 20260831231335 | 69 | 146 | 0.0 | 2.0 | 0.00 | 0.00 | 0.00 | 81 | 1014.4 |
| 20260831230846 | 69 | 123 | 0.0 | 1.0 | 0.00 | 0.00 | 0.00 | 80 | 1014.4 |
| 20260831230323 | 69 | 123 | 0.0 | 0.0 | 0.00 | 0.00 | 0.00 | 80 | 1014.4 |
| 20260831225815 | 70 | 123 | 0.0 | 0.0 | 0.00 | 0.00 | 0.00 | 79 | 1014.7 |
| 20260831225339 | 70 | 123 | 0.0 | 0.0 | 0.00 | 0.00 | 0.00 | 79 | 1014.7 |
| 20260831224818 | 70 | 123 | 0.0 | 0.0 | 0.00 | 0.00 | 0.00 | 78 | 1014.7 |
| 20260831224326 | 70 | 123 | 0.0 | 0.0 | 0.00 | 0.00 | 0.00 | 79 | 1014.7 |
| 20260831223815 | 70 | 123 | 0.0 | 0.0 | 0.00 | 0.00 | 0.00 | 79 | 1014.7 |
| 20260831223349 | 70 | 123 | 0.0 | 0.0 | 0.00 | 0.00 | 0.00 | 79 | 1014.7 |
| 20260831222837 | 71 | 123 | 0.0 | 0.0 | 0.00 | 0.00 | 0.00 | 77 | 1014.7 |
| 20260831222326 | 71 | 123 | 0.0 | 0.0 | 0.00 | 0.00 | 0.00 | 77 | 1014.7 |
| 20260831221820 | 71 | 123 | 0.0 | 0.0 | 0.00 | 0.00 | 0.00 | 76 | 1014.7 |
| 20260831221339 | 71 | 123 | 0.0 | 0.0 | 0.00 | 0.00 | 0.00 | 76 | 1014.7 |
| 20260831220832 | 72 | 123 | 0.0 | 0.0 | 0.00 | 0.00 | 0.00 | 75 | 1014.7 |
| 20260831220317 | 72 | 123 | 0.0 | 0.0 | 0.00 | 0.00 | 0.00 | 74 | 1014.7 |
| 20260831215828 | 72 | 123 | 0.0 | 0.0 | 0.00 | 0.00 | 0.00 | 75 | 1014.7 |
| 20260831215334 | 73 | 123 | 0.0 | 0.0 | 0.00 | 0.00 | 0.00 | 74 | 1014.7 |
| 20260831214813 | 73 | 123 | 0.0 | 0.0 | 0.00 | 0.00 | 0.00 | 74 | 1014.7 |
| 20260831214322 | 73 | 123 | 0.0 | 1.0 | 0.00 | 0.00 | 0.00 | 73 | 1014.7 |
| 20260831213830 | 73 | 132 | 0.0 | 1.0 | 0.00 | 0.00 | 0.00 | 76 | 1014.7 |
| 20260831213338 | 73 | 132 | 0.0 | 1.0 | 0.00 | 0.00 | 0.00 | 75 | 1014.7 |
| 20260831212822 | 73 | 132 | 0.0 | 0.0 | 0.00 | 0.00 | 0.00 | 72 | 1014.6 |
| 20260831212318 | 73 | 136 | 0.0 | 1.0 | 0.00 | 0.00 | 0.00 | 74 | 1014.6 |
| 20260831211811 | 73 | 155 | 0.0 | 0.0 | 0.00 | 0.00 | 0.00 | 74 | 1014.6 |
| 20260831211327 | 74 | 101 | 0.0 | 0.0 | 0.00 | 0.00 | 0.00 | 72 | 1014.8 |
| 20260831210836 | 74 | 101 | 0.0 | 1.0 | 0.00 | 0.00 | 0.00 | 72 | 1014.8 |
| 20260831210331 | 74 | 136 | 0.0 | 1.0 | 0.00 | 0.00 | 0.00 | 72 | 1014.8 |
| 20260831205821 | 74 | 142 | 0.0 | 0.0 | 0.00 | 0.00 | 0.00 | 71 | 1014.8 |
| 20260831205330 | 75 | 129 | 0.0 | 0.0 | 0.00 | 0.00 | 0.00 | 70 | 1014.8 |
| 20260831204843 | 75 | 129 | 0.0 | 0.0 | 0.00 | 0.00 | 0.00 | 70 | 1014.8 |
| 20260831204327 | 75 | 140 | 0.0 | 0.0 | 0.00 | 0.00 | 0.00 | 71 | 1014.8 |
| 20260831203859 | 75 | 140 | 0.0 | 0.0 | 0.00 | 0.00 | 0.00 | 66 | 1014.8 |
| 20260831203318 | 76 | 140 | 0.0 | 0.0 | 0.00 | 0.00 | 0.00 | 66 | 1014.8 |
| 20260831202858 | 77 | 140 | 0.0 | 2.0 | 0.00 | 0.00 | 0.00 | 63 | 1015.0 |
| 20260831202336 | 78 | 143 | 0.0 | 3.0 | 0.00 | 0.00 | 0.00 | 64 | 1015.0 |
| 20260831201823 | 78 | 200 | 0.0 | 3.0 | 0.00 | 0.00 | 0.00 | 59 | 1015.0 |
| 20260831201346 | 78 | 246 | 1.0 | 3.0 | 0.00 | 0.00 | 0.00 | 56 | 1015.1 |
| 20260831200831 | 78 | 273 | 1.0 | 4.0 | 0.00 | 0.00 | 0.00 | 61 | 1015.1 |
| 20260831200317 | 78 | 5 | 1.0 | 4.0 | 0.00 | 0.00 | 0.00 | 58 | 1015.1 |
| 20260831195845 | 79 | 130 | 0.0 | 4.0 | 0.00 | 0.00 | 0.00 | 55 | 1015.2 |
| 20260831195321 | 79 | 147 | 0.0 | 3.0 | 0.00 | 0.00 | 0.00 | 54 | 1015.2 |
| 20260831194813 | 79 | 13 | 0.0 | 3.0 | 0.00 | 0.00 | 0.00 | 56 | 1015.2 |
| 20260831194336 | 78 | 194 | 0.0 | 3.0 | 0.00 | 0.00 | 0.00 | 54 | 1015.4 |
| 20260831193819 | 78 | 225 | 0.0 | 4.0 | 0.00 | 0.00 | 0.00 | 58 | 1015.4 |
| 20260831193333 | 78 | 302 | 1.0 | 4.0 | 0.00 | 0.00 | 0.00 | 58 | 1015.4 |
| 20260831192812 | 78 | 277 | 1.0 | 5.0 | 0.00 | 0.00 | 0.00 | 58 | 1015.4 |
| 20260831192345 | 78 | 126 | 1.0 | 5.0 | 0.00 | 0.00 | 0.00 | 61 | 1015.4 |
| 20260831191812 | 78 | 169 | 1.0 | 4.0 | 0.00 | 0.00 | 0.00 | 61 | 1015.4 |
| 20260831191358 | 78 | 113 | 1.0 | 4.0 | 0.00 | 0.00 | 0.00 | 60 | 1015.5 |
| 20260831190831 | 78 | 182 | 1.0 | 3.0 | 0.00 | 0.00 | 0.00 | 59 | 1015.5 |
| 20260831190315 | 78 | 360 | 1.0 | 5.0 | 0.00 | 0.00 | 0.00 | 62 | 1015.5 |
| 20260831185820 | 78 | 22 | 2.0 | 5.0 | 0.00 | 0.00 | 0.00 | 59 | 1015.5 |
| 20260831185349 | 77 | 182 | 1.0 | 4.0 | 0.00 | 0.00 | 0.00 | 62 | 1015.5 |
| 20260831184836 | 77 | 109 | 0.0 | 2.0 | 0.00 | 0.00 | 0.00 | 63 | 1015.5 |
| 20260831184314 | 77 | 128 | 1.0 | 3.0 | 0.00 | 0.00 | 0.00 | 69 | 1015.8 |
| 20260831183827 | 77 | 339 | 1.0 | 3.0 | 0.00 | 0.00 | 0.00 | 69 | 1015.8 |
| 20260831183334 | 77 | 34 | 1.0 | 3.0 | 0.00 | 0.00 | 0.00 | 65 | 1015.8 |
| 20260831182822 | 77 | 196 | 1.0 | 3.0 | 0.00 | 0.00 | 0.00 | 65 | 1016.0 |
| 20260831182327 | 77 | 294 | 1.0 | 4.0 | 0.00 | 0.00 | 0.00 | 66 | 1016.0 |
| 20260831181831 | 76 | 360 | 1.0 | 4.0 | 0.00 | 0.00 | 0.00 | 66 | 1016.0 |
| 20260831181322 | 76 | 250 | 2.0 | 5.0 | 0.00 | 0.00 | 0.00 | 73 | 1016.1 |
| 20260831180818 | 76 | 294 | 2.0 | 5.0 | 0.00 | 0.00 | 0.00 | 73 | 1016.1 |
| 20260831180313 | 76 | 61 | 0.0 | 4.0 | 0.00 | 0.00 | 0.00 | 69 | 1016.1 |
| 20260831175821 | 76 | 61 | 1.0 | 4.0 | 0.00 | 0.00 | 0.00 | 66 | 1016.2 |
| 20260831175320 | 76 | 288 | 1.0 | 3.0 | 0.00 | 0.00 | 0.00 | 71 | 1016.2 |
| 20260831174830 | 75 | 113 | 0.0 | 3.0 | 0.00 | 0.00 | 0.00 | 70 | 1016.2 |
| 20260831174338 | 74 | 171 | 1.0 | 5.0 | 0.00 | 0.00 | 0.00 | 69 | 1016.4 |
| 20260831173823 | 74 | 269 | 1.0 | 5.0 | 0.00 | 0.00 | 0.00 | 70 | 1016.4 |
| 20260831173335 | 74 | 140 | 2.0 | 5.0 | 0.00 | 0.00 | 0.00 | 72 | 1016.4 |
| 20260831172830 | 74 | 136 | 1.0 | 4.0 | 0.00 | 0.00 | 0.00 | 72 | 1016.4 |
| 20260831172312 | 74 | 151 | 1.0 | 2.0 | 0.00 | 0.00 | 0.00 | 70 | 1016.4 |
| 20260831171845 | 74 | 339 | 0.0 | 5.0 | 0.00 | 0.00 | 0.00 | 71 | 1016.4 |
| 20260831171318 | 75 | 100 | 1.0 | 5.0 | 0.00 | 0.00 | 0.00 | 69 | 1016.5 |
| 20260831170826 | 75 | 314 | 1.0 | 5.0 | 0.00 | 0.00 | 0.00 | 71 | 1016.5 |
| 20260831170322 | 75 | 36 | 1.0 | 2.0 | 0.00 | 0.00 | 0.00 | 71 | 1016.5 |
| 20260831165837 | 75 | 325 | 0.0 | 2.0 | 0.00 | 0.00 | 0.00 | 70 | 1016.6 |
| 20260831165318 | 75 | 281 | 0.0 | 2.0 | 0.00 | 0.00 | 0.00 | 70 | 1016.6 |
| 20260831164831 | 75 | 282 | 1.0 | 2.0 | 0.00 | 0.00 | 0.00 | 71 | 1016.6 |
| 20260831164340 | 75 | 275 | 0.0 | 5.0 | 0.00 | 0.00 | 0.00 | 74 | 1017.0 |
| 20260831163856 | 75 | 191 | 2.0 | 6.0 | 0.00 | 0.00 | 0.00 | 69 | 1017.0 |
| 20260831163331 | 75 | 307 | 2.0 | 6.0 | 0.00 | 0.00 | 0.00 | 72 | 1017.0 |
| 20260831162821 | 75 | 313 | 2.0 | 5.0 | 0.00 | 0.00 | 0.00 | 74 | 1017.0 |
| 20260831162333 | 74 | 22 | 2.0 | 5.0 | 0.00 | 0.00 | 0.00 | 74 | 1017.0 |
| 20260831161824 | 74 | 5 | 2.0 | 4.0 | 0.00 | 0.00 | 0.00 | 74 | 1017.0 |
| 20260831161342 | 74 | 341 | 2.0 | 4.0 | 0.00 | 0.00 | 0.00 | 71 | 1017.1 |
| 20260831160818 | 74 | 183 | 1.0 | 3.0 | 0.00 | 0.00 | 0.00 | 73 | 1017.1 |
| 20260831160323 | 74 | 23 | 1.0 | 3.0 | 0.00 | 0.00 | 0.00 | 73 | 1017.1 |
| 20260831155840 | 73 | 344 | 1.0 | 4.0 | 0.00 | 0.00 | 0.00 | 77 | 1017.4 |
| 20260831155325 | 73 | 180 | 1.0 | 4.0 | 0.00 | 0.00 | 0.00 | 75 | 1017.4 |
| 20260831154828 | 72 | 311 | 2.0 | 4.0 | 0.00 | 0.00 | 0.00 | 75 | 1017.4 |
| 20260831154338 | 72 | 295 | 2.0 | 4.0 | 0.00 | 0.00 | 0.00 | 74 | 1017.4 |
| 20260831153819 | 72 | 344 | 1.0 | 3.0 | 0.00 | 0.00 | 0.00 | 76 | 1017.4 |
| 20260831153329 | 72 | 355 | 2.0 | 3.0 | 0.00 | 0.00 | 0.00 | 76 | 1017.4 |
| 20260831152823 | 71 | 355 | 0.0 | 3.0 | 0.00 | 0.00 | 0.00 | 76 | 1017.4 |
| 20260831152355 | 71 | 286 | 2.0 | 3.0 | 0.00 | 0.00 | 0.00 | 74 | 1017.4 |
| 20260831151839 | 72 | 308 | 2.0 | 6.0 | 0.00 | 0.00 | 0.00 | 75 | 1017.4 |
| 20260831151339 | 72 | 344 | 3.0 | 6.0 | 0.00 | 0.00 | 0.00 | 74 | 1017.3 |
| 20260831150839 | 72 | 5 | 3.0 | 5.0 | 0.00 | 0.00 | 0.00 | 77 | 1017.3 |
| 20260831150311 | 71 | 265 | 1.0 | 5.0 | 0.00 | 0.00 | 0.00 | 79 | 1017.3 |
| 20260831145849 | 71 | 304 | 1.0 | 4.0 | 0.00 | 0.00 | 0.00 | 78 | 1017.3 |
| 20260831145324 | 70 | 323 | 1.0 | 4.0 | 0.00 | 0.00 | 0.00 | 80 | 1017.3 |
| 20260831144830 | 70 | 185 | 2.0 | 4.0 | 0.00 | 0.00 | 0.00 | 78 | 1017.3 |
| 20260831144318 | 71 | 109 | 1.0 | 3.0 | 0.00 | 0.00 | 0.00 | 80 | 1017.4 |
| 20260831143831 | 70 | 203 | 1.0 | 3.0 | 0.00 | 0.00 | 0.00 | 80 | 1017.4 |
| 20260831143328 | 70 | 355 | 1.0 | 4.0 | 0.00 | 0.00 | 0.00 | 79 | 1017.4 |
| 20260831142827 | 69 | 123 | 1.0 | 4.0 | 0.00 | 0.00 | 0.00 | 79 | 1017.4 |
| 20260831142336 | 69 | 5 | 1.0 | 4.0 | 0.00 | 0.00 | 0.00 | 82 | 1017.4 |
| 20260831141827 | 68 | 308 | 1.0 | 4.0 | 0.00 | 0.00 | 0.00 | 83 | 1017.4 |
| 20260831141318 | 68 | 338 | 2.0 | 4.0 | 0.00 | 0.00 | 0.00 | 84 | 1017.5 |
| 20260831140817 | 67 | 25 | 2.0 | 5.0 | 0.00 | 0.00 | 0.00 | 85 | 1017.5 |
| 20260831140341 | 67 | 11 | 3.0 | 5.0 | 0.00 | 0.00 | 0.00 | 88 | 1017.5 |
| 20260831135836 | 67 | 20 | 1.0 | 4.0 | 0.00 | 0.00 | 0.00 | 89 | 1017.5 |
| 20260831135331 | 65 | 29 | 0.0 | 2.0 | 0.00 | 0.00 | 0.00 | 91 | 1017.5 |
| 20260831134820 | 64 | 29 | 0.0 | 2.0 | 0.00 | 0.00 | 0.00 | 94 | 1017.5 |
| 20260831134329 | 64 | 29 | 0.0 | 2.0 | 0.00 | 0.00 | 0.00 | 94 | 1017.5 |
| 20260831133837 | 63 | 29 | 0.0 | 2.0 | 0.00 | 0.00 | 0.00 | 95 | 1017.5 |
| 20260831133314 | 63 | 29 | 0.0 | 2.0 | 0.00 | 0.00 | 0.00 | 96 | 1017.5 |
| 20260831132858 | 63 | 29 | 0.0 | 1.0 | 0.00 | 0.00 | 0.00 | 96 | 1017.5 |
| 20260831132316 | 63 | 29 | 0.0 | 0.0 | 0.00 | 0.00 | 0.00 | 97 | 1017.5 |
| 20260831131826 | 63 | 29 | 0.0 | 3.0 | 0.00 | 0.00 | 0.00 | 97 | 1017.5 |
| 20260831131332 | 63 | 29 | 1.0 | 3.0 | 0.00 | 0.00 | 0.00 | 97 | 1017.5 |
| 20260831130815 | 63 | 312 | 0.0 | 2.0 | 0.00 | 0.00 | 0.00 | 97 | 1017.5 |
| 20260831130323 | 62 | 333 | 0.0 | 2.0 | 0.00 | 0.00 | 0.00 | 97 | 1017.5 |
| 20260831125827 | 62 | 333 | 1.0 | 2.0 | 0.00 | 0.00 | 0.00 | 97 | 1017.5 |
| 20260831125337 | 62 | 319 | 0.0 | 2.0 | 0.00 | 0.00 | 0.00 | 98 | 1017.5 |
| 20260831124828 | 62 | 306 | 1.0 | 2.0 | 0.00 | 0.00 | 0.00 | 97 | 1017.5 |
| 20260831124318 | 62 | 306 | 0.0 | 2.0 | 0.00 | 0.00 | 0.00 | 98 | 1017.5 |
| 20260831123834 | 62 | 213 | 0.0 | 0.0 | 0.00 | 0.00 | 0.00 | 98 | 1017.5 |
| 20260831123314 | 61 | 213 | 0.0 | 0.0 | 0.00 | 0.00 | 0.00 | 97 | 1017.5 |
| 20260831122819 | 61 | 213 | 0.0 | 0.0 | 0.00 | 0.00 | 0.00 | 97 | 1017.5 |
| 20260831122328 | 61 | 213 | 0.0 | 0.0 | 0.00 | 0.00 | 0.00 | 97 | 1017.5 |
| 20260831121840 | 61 | 213 | 0.0 | 0.0 | 0.00 | 0.00 | 0.00 | 97 | 1017.5 |
| 20260831121330 | 61 | 213 | 0.0 | 0.0 | 0.00 | 0.00 | 0.00 | 97 | 1017.5 |
| 20260831120823 | 61 | 213 | 0.0 | 0.0 | 0.00 | 0.00 | 0.00 | 97 | 1017.5 |
| 20260831120330 | 61 | 213 | 0.0 | 0.0 | 0.00 | 0.00 | 0.00 | 97 | 1017.5 |
| 20260831115819 | 61 | 219 | 0.0 | 0.0 | 0.00 | 0.00 | 0.00 | 97 | 1017.4 |
| 20260831115316 | 61 | 168 | 0.0 | 0.0 | 0.00 | 0.00 | 0.00 | 97 | 1017.4 |
| 20260831114901 | 61 | 168 | 0.0 | 0.0 | 0.00 | 0.00 | 0.00 | 97 | 1017.4 |
| 20260831114323 | 61 | 168 | 0.0 | 0.0 | 0.00 | 0.00 | 0.00 | 97 | 1017.4 |
| 20260831113830 | 61 | 168 | 0.0 | 0.0 | 0.00 | 0.00 | 0.00 | 98 | 1017.4 |
| 20260831113322 | 60 | 168 | 0.0 | 0.0 | 0.00 | 0.00 | 0.00 | 98 | 1017.4 |
| 20260831112830 | 60 | 168 | 0.0 | 0.0 | 0.00 | 0.00 | 0.00 | 97 | 1017.0 |
| 20260831112314 | 60 | 168 | 0.0 | 0.0 | 0.00 | 0.00 | 0.00 | 97 | 1017.0 |
| 20260831111836 | 60 | 168 | 0.0 | 0.0 | 0.00 | 0.00 | 0.00 | 97 | 1017.0 |
| 20260831111326 | 59 | 168 | 0.0 | 0.0 | 0.00 | 0.00 | 0.00 | 97 | 1017.0 |
| 20260831110831 | 59 | 168 | 0.0 | 0.0 | 0.00 | 0.00 | 0.00 | 97 | 1017.0 |
| 20260831110341 | 59 | 168 | 0.0 | 0.0 | 0.00 | 0.00 | 0.00 | 97 | 1017.0 |
| 20260831105827 | 59 | 168 | 0.0 | 0.0 | 0.00 | 0.00 | 0.00 | 97 | 1016.7 |
| 20260831105334 | 59 | 168 | 0.0 | 0.0 | 0.00 | 0.00 | 0.00 | 97 | 1016.7 |
| 20260831104844 | 59 | 168 | 0.0 | 0.0 | 0.00 | 0.00 | 0.00 | 97 | 1016.7 |
| 20260831104330 | 59 | 168 | 0.0 | 0.0 | 0.00 | 0.00 | 0.00 | 97 | 1016.5 |
| 20260831103838 | 59 | 168 | 0.0 | 0.0 | 0.00 | 0.00 | 0.00 | 97 | 1016.5 |
| 20260831103316 | 59 | 168 | 0.0 | 0.0 | 0.00 | 0.00 | 0.00 | 97 | 1016.5 |
| 20260831102825 | 59 | 168 | 0.0 | 0.0 | 0.00 | 0.00 | 0.00 | 97 | 1016.6 |
| 20260831102317 | 59 | 168 | 0.0 | 0.0 | 0.00 | 0.00 | 0.00 | 97 | 1016.6 |
| 20260831101812 | 59 | 168 | 0.0 | 0.0 | 0.00 | 0.00 | 0.00 | 96 | 1016.6 |
| 20260831101352 | 59 | 168 | 0.0 | 0.0 | 0.00 | 0.00 | 0.00 | 97 | 1016.5 |
| 20260831100812 | 59 | 168 | 0.0 | 0.0 | 0.00 | 0.00 | 0.00 | 97 | 1016.5 |
| 20260831100330 | 59 | 168 | 0.0 | 0.0 | 0.00 | 0.00 | 0.00 | 97 | 1016.5 |
| 20260831095824 | 59 | 168 | 0.0 | 0.0 | 0.00 | 0.00 | 0.00 | 97 | 1016.4 |
| 20260831095333 | 59 | 168 | 0.0 | 0.0 | 0.00 | 0.00 | 0.00 | 97 | 1016.4 |
| 20260831094841 | 59 | 168 | 0.0 | 0.0 | 0.00 | 0.00 | 0.00 | 97 | 1016.4 |
| 20260831094330 | 59 | 168 | 0.0 | 0.0 | 0.00 | 0.00 | 0.00 | 97 | 1016.4 |
| 20260831093839 | 59 | 90 | 0.0 | 0.0 | 0.00 | 0.00 | 0.00 | 96 | 1016.4 |
| 20260831093345 | 59 | 90 | 0.0 | 0.0 | 0.00 | 0.00 | 0.00 | 96 | 1016.4 |
| 20260831092816 | 59 | 90 | 0.0 | 0.0 | 0.00 | 0.00 | 0.00 | 96 | 1016.4 |
| 20260831092324 | 59 | 90 | 0.0 | 0.0 | 0.00 | 0.00 | 0.00 | 96 | 1016.4 |
| 20260831091817 | 59 | 90 | 0.0 | 0.0 | 0.00 | 0.00 | 0.00 | 96 | 1016.4 |
| 20260831091341 | 59 | 90 | 0.0 | 0.0 | 0.00 | 0.00 | 0.00 | 96 | 1016.4 |
| 20260831090832 | 59 | 90 | 0.0 | 0.0 | 0.00 | 0.00 | 0.00 | 96 | 1016.4 |
| 20260831090331 | 59 | 90 | 0.0 | 0.0 | 0.00 | 0.00 | 0.00 | 96 | 1016.4 |
| 20260831085816 | 59 | 90 | 0.0 | 0.0 | 0.00 | 0.00 | 0.00 | 96 | 1016.3 |
| 20260831085347 | 59 | 90 | 0.0 | 0.0 | 0.00 | 0.00 | 0.00 | 96 | 1016.3 |
| 20260831084818 | 59 | 90 | 0.0 | 0.0 | 0.00 | 0.00 | 0.00 | 96 | 1016.3 |
| 20260831084352 | 59 | 90 | 0.0 | 0.0 | 0.00 | 0.00 | 0.00 | 96 | 1016.0 |
| 20260831083837 | 59 | 90 | 0.0 | 0.0 | 0.00 | 0.00 | 0.00 | 96 | 1016.0 |
| 20260831083321 | 59 | 90 | 0.0 | 0.0 | 0.00 | 0.00 | 0.00 | 96 | 1016.0 |
| 20260831082827 | 59 | 90 | 0.0 | 0.0 | 0.00 | 0.00 | 0.00 | 96 | 1015.9 |
| 20260831082335 | 59 | 90 | 0.0 | 0.0 | 0.00 | 0.00 | 0.00 | 95 | 1015.9 |
| 20260831081827 | 59 | 90 | 0.0 | 0.0 | 0.00 | 0.00 | 0.00 | 95 | 1015.9 |
| 20260831081319 | 60 | 90 | 0.0 | 0.0 | 0.00 | 0.00 | 0.00 | 95 | 1015.9 |
| 20260831080811 | 60 | 90 | 0.0 | 0.0 | 0.00 | 0.00 | 0.00 | 95 | 1015.9 |
| 20260831080336 | 60 | 90 | 0.0 | 0.0 | 0.00 | 0.00 | 0.00 | 95 | 1015.9 |
| 20260831075813 | 60 | 90 | 0.0 | 0.0 | 0.00 | 0.00 | 0.00 | 95 | 1015.9 |
| 20260831075318 | 60 | 90 | 0.0 | 0.0 | 0.00 | 0.00 | 0.00 | 95 | 1015.9 |
| 20260831074830 | 60 | 90 | 0.0 | 1.0 | 0.00 | 0.00 | 0.00 | 95 | 1015.9 |
| 20260831074351 | 60 | 90 | 0.0 | 0.0 | 0.00 | 0.00 | 0.00 | 95 | 1015.8 |
| 20260831073819 | 60 | 90 | 0.0 | 0.0 | 0.00 | 0.00 | 0.00 | 95 | 1015.8 |
| 20260831073323 | 60 | 90 | 0.0 | 0.0 | 0.00 | 0.00 | 0.00 | 94 | 1015.8 |
| 20260831072839 | 60 | 90 | 0.0 | 0.0 | 0.00 | 0.00 | 0.00 | 94 | 1015.8 |